Tracking 19636 objects as of 25-May-2019
HD Live streaming from Space Station
objects crossing your sky now

SL-14 R/B

Track SL-14 R/B now!
10-day predictions
SL-14 R/B is classified as:


NORAD ID: 16792
Int'l Code: 1986-046B
Perigee: 608.5 km
Apogee: 644.2 km
Inclination: 82.5 °
Period: 97.1 minutes
Semi major axis: 6997 km
RCS: 5.061 m2 (large)
Launch date: June 12, 1986
Source: Commonwealth of Independent States (former USSR) (CIS)
Launch site: PLESETSK MISSILE AND SPACE COMPLEX (PKMTR)

Note: This is a ROCKET BODY
aabbcc
Your satellite tracking list
Your tracking list is empty




NASA's NSSDC Master Catalog

Two Line Element Set (TLE):
1 16792U 86046B   19144.82127271 +.00000081 +00000-0 +68906-5 0  9991
2 16792 082.4836 257.4492 0025531 124.4213 359.1968 14.83212744758539
Source of the keplerian elements: AFSPC